Cape Coral Emergency Operations FL US WEATHERSTEM current weather conditions

sailwx.info

Wind from 090 at 5 knots gusting 12

Air temperature 25.7° C
Dewpoint 14.8° C

Last reported at 2019-Dec-15 19:40 UTC.
Time now 2019-Dec-15 21:04 UTC

Location: N 26°38' W 081°57'.
View on Google Maps.

See reports from other nearby stations

  
Tides and Currents Weather Stations Pressure Air Temp Water Temp Dewpoint Dewpoint Depression Visibility Wind Speed Wind Dir Waves Ship Positions
date/time (UTC)wind fromknots sea level pressurealtimeterstation pressurevisibilityair tempwater tempwave heightnotes
2019-Dec-15 19:40 090 5 gusting 12 25.7
2019-Dec-15 19:30 096 2 gusting 10 25.6
2019-Dec-15 19:20 111 3 gusting 10 25.3
2019-Dec-15 19:10 080 4 gusting 10 25.3
2019-Dec-15 19:00 090 6 gusting 12 25.3
2019-Dec-15 18:50 109 3 gusting 11 25.1
2019-Dec-15 18:40 102 6 gusting 11 24.9
2019-Dec-15 18:30 085 6 gusting 12 24.6
2019-Dec-15 18:20 118 8 gusting 11 24.3
2019-Dec-15 18:10 123 7 gusting 12 24.1
2019-Dec-15 18:00 076 4 gusting 9 23.8
2019-Dec-15 17:50 101 5 gusting 10 23.6
2019-Dec-15 17:40 109 5 gusting 10 23.4
2019-Dec-15 17:30 113 6 gusting 10 22.9
2019-Dec-15 17:20 076 2 gusting 8 22.7
2019-Dec-15 17:10 094 6 gusting 9 22.3
2019-Dec-15 17:00 029 4 gusting 8 22.1
2019-Dec-15 16:50 060 7 gusting 9 21.7
2019-Dec-15 16:40 106 7 gusting 8 21.3
2019-Dec-15 16:30 094 7 gusting 9 20.8
2019-Dec-15 16:20 046 8 gusting 10 20.6
2019-Dec-15 16:10 067 4 gusting 10 20.2
2019-Dec-15 16:00 063 4 gusting 8 19.9
2019-Dec-15 15:50 082 3 gusting 10 19.5
2019-Dec-15 15:40 096 5 gusting 12 19.3
2019-Dec-15 15:30 077 7 gusting 8 19.2
2019-Dec-15 15:20 072 5 gusting 7 19.0
2019-Dec-15 15:10 080 3 gusting 7 18.3
2019-Dec-15 15:00 043 4 gusting 7 17.9
2019-Dec-15 14:50 079 6 gusting 8 17.5
2019-Dec-15 14:40 046 8 gusting 9 17.2
2019-Dec-15 14:30 005 5 gusting 9 16.9
2019-Dec-15 14:20 031 5 gusting 10 16.5
2019-Dec-15 14:10 045 6 gusting 9 16.3
2019-Dec-15 14:00 017 6 gusting 9 15.9
2019-Dec-15 13:50 050 4 gusting 7 15.8
2019-Dec-15 13:40 024 3 gusting 7 15.5
2019-Dec-15 13:30 079 1 gusting 3 15.2
2019-Dec-15 13:20 053 0 gusting 3 14.7
2019-Dec-15 13:10 037 1 gusting 4 14.4
2019-Dec-15 13:00 058 2 gusting 4 14.2
2019-Dec-15 12:50 082 1 gusting 2 13.8
2019-Dec-15 12:40 065 0 gusting 1 13.5
2019-Dec-15 12:30 13.2
2019-Dec-15 12:20 065 0 gusting 1 13.2
2019-Dec-15 12:10 065 0 gusting 2 13.5
2019-Dec-15 12:00 043 1 gusting 3 13.3
2019-Dec-15 11:50 058 0 gusting 3 13.3
2019-Dec-15 11:30 043 2 gusting 3 13.0
2019-Dec-15 11:20 044 0 gusting 1 13.1
2019-Dec-15 11:10 044 0 gusting 1 13.3
2019-Dec-15 10:40 044 0 gusting 1 13.5
2019-Dec-15 10:30 044 0 gusting 0 13.4
2019-Dec-15 10:20 13.7
2019-Dec-15 10:10 13.8
2019-Dec-15 10:00 13.9
2019-Dec-15 09:50 044 0 gusting 1 13.9
2019-Dec-15 09:40 044 0 gusting 2 14.2
2019-Dec-15 09:30 044 1 gusting 2 14.2
2019-Dec-15 09:20 052 0 gusting 1 14.3
2019-Dec-15 09:10 052 0 gusting 1 14.2
2019-Dec-15 09:00 052 0 gusting 1 14.3
2019-Dec-15 08:50 052 1 gusting 1 14.4
2019-Dec-15 08:40 052 0 gusting 1 14.4
2019-Dec-15 08:30 14.6
2019-Dec-15 08:20 052 14.6
2019-Dec-15 08:10 052 0 gusting 1 14.8
2019-Dec-15 08:00 052 0 gusting 0 14.8
2019-Dec-15 07:50 052 0 gusting 0 15.0
2019-Dec-15 07:40 052 15.1
2019-Dec-15 07:30 053 1 gusting 2 15.1
2019-Dec-15 07:20 061 1 gusting 3 15.1
2019-Dec-15 07:10 047 0 gusting 3 15.1
2019-Dec-15 07:00 014 1 gusting 3 15.1
2019-Dec-15 06:50 020 1 gusting 2 15.1
2019-Dec-15 06:40 021 15.3
2019-Dec-15 06:30 348 2 gusting 2 15.4
2019-Dec-15 06:20 023 1 gusting 1 15.6
2019-Dec-15 06:10 109 15.8
2019-Dec-15 06:00 15.7
2019-Dec-15 05:50 115 0 gusting 2 15.8
2019-Dec-15 05:40 16.1
2019-Dec-15 05:30 020 1 gusting 1 16.2
2019-Dec-15 05:20 16.3
2019-Dec-15 05:10 16.3
2019-Dec-15 05:00 025 0 gusting 2 16.6
2019-Dec-15 04:50 012 0 gusting 0 16.6
2019-Dec-15 04:40 012 0 gusting 1 16.7
2019-Dec-15 04:30 16.7
2019-Dec-15 04:20 011 0 gusting 1 16.7
2019-Dec-15 04:10 16.7
2019-Dec-15 04:00 16.9
2019-Dec-15 03:50 16.9
2019-Dec-15 03:40 17.2
2019-Dec-15 03:30 17.3
2019-Dec-15 03:20 005 2 gusting 3 17.4
2019-Dec-15 03:10 342 1 gusting 4 17.6
2019-Dec-15 03:00 360 1 gusting 2 17.7
2019-Dec-15 02:50 17.9
2019-Dec-15 02:40 18.1
2019-Dec-15 02:30 063 0 gusting 3 18.2
2019-Dec-15 02:20 315 0 gusting 1 18.3
2019-Dec-15 02:10 18.4
2019-Dec-15 02:00 18.4
2019-Dec-15 01:50 355 0 gusting 2 18.6
2019-Dec-15 01:40 355 0 gusting 2 18.7
2019-Dec-15 01:30 355 0 gusting 3 18.9
2019-Dec-15 01:20 335 0 gusting 1 19.1
2019-Dec-15 01:10 335 0 gusting 2 19.2
2019-Dec-15 01:00 342 0 gusting 4 19.3
2019-Dec-15 00:50 337 1 gusting 3 19.4
2019-Dec-15 00:40 336 2 gusting 5 19.7
2019-Dec-15 00:30 333 3 gusting 6 19.8
2019-Dec-15 00:20 331 2 gusting 7 20.0
2019-Dec-15 00:10 338 2 gusting 5 20.2
2019-Dec-15 00:00 337 3 gusting 7 20.3
2019-Dec-14 23:50 332 4 gusting 7 20.5
2019-Dec-14 23:40 315 2 gusting 8 20.6
2019-Dec-14 23:30 326 3 gusting 8 20.6
2019-Dec-14 23:20 330 2 gusting 5 20.7
2019-Dec-14 23:10 319 3 gusting 4 20.9
2019-Dec-14 23:00 311 5 gusting 7 21.2
2019-Dec-14 22:50 302 3 gusting 8 21.4
2019-Dec-14 22:40 254 4 gusting 9 21.8
2019-Dec-14 22:30 334 2 gusting 10 21.9
2019-Dec-14 22:20 311 2 gusting 7 22.0
2019-Dec-14 22:10 299 6 gusting 8 22.3
2019-Dec-14 22:00 286 2 gusting 13 22.4
2019-Dec-14 21:50 271 5 gusting 12 22.7
2019-Dec-14 21:40 285 7 gusting 12 23.1
2019-Dec-14 21:30 301 2 gusting 12 23.4
2019-Dec-14 21:20 273 6 gusting 11 23.4
2019-Dec-14 20:50 310 6 gusting 12 23.9
2019-Dec-14 20:40 306 4 gusting 12 24.3
2019-Dec-14 20:20 284 11 gusting 16 24.3
2019-Dec-14 20:10 295 11 gusting 15 24.1
2019-Dec-14 20:00 313 6 gusting 16 24.4
2019-Dec-14 19:50 288 9 gusting 15 25.3
2019-Dec-14 19:40 328 7 gusting 13 25.2
2019-Dec-14 19:30 308 13 gusting 14 25.1
2019-Dec-14 19:20 287 12 gusting 13 25.4
2019-Dec-14 19:10 329 11 gusting 11 25.8
2019-Dec-14 18:50 277 7 gusting 13 25.8
2019-Dec-14 18:40 270 3 gusting 12 26.1
2019-Dec-14 18:30 264 7 gusting 12 26.1
2019-Dec-14 18:20 270 11 gusting 13 26.1
2019-Dec-14 18:10 272 7 gusting 10 26.7
2019-Dec-14 18:00 292 7 gusting 13 26.1
2019-Dec-14 17:50 248 6 gusting 13 25.8
2019-Dec-14 17:40 238 1 gusting 11 24.9
2019-Dec-14 17:30 212 5 gusting 13 24.8
2019-Dec-14 17:20 294 8 gusting 13 24.7
2019-Dec-14 17:10 281 7 gusting 13 24.7
2019-Dec-14 17:00 273 3 gusting 9 24.7
2019-Dec-14 16:50 240 6 gusting 13 24.4
2019-Dec-14 16:40 274 3 gusting 10 24.1
2019-Dec-14 16:30 263 0 gusting 11 23.6
2019-Dec-14 16:20 254 7 gusting 8 23.3
2019-Dec-14 16:10 227 7 gusting 8 22.8
2019-Dec-14 16:00 234 6 gusting 10 22.7
2019-Dec-14 15:50 265 7 gusting 16 22.6
2019-Dec-14 15:40 259 8 gusting 13 22.5
2019-Dec-14 15:30 287 3 gusting 8 22.2
2019-Dec-14 15:20 269 7 gusting 14 22.0
2019-Dec-14 15:10 264 8 gusting 13 21.8
2019-Dec-14 15:00 242 2 gusting 10 21.6
2019-Dec-14 14:50 292 4 gusting 9 21.3
2019-Dec-14 14:40 254 4 gusting 13 21.2
2019-Dec-14 14:30 235 4 gusting 15 21.5
2019-Dec-14 14:20 269 8 gusting 23 23.1
2019-Dec-14 14:10 204 8 gusting 9 24.8
2019-Dec-14 14:00 229 6 gusting 15 24.9
2019-Dec-14 13:50 220 10 gusting 13 24.9
2019-Dec-14 13:40 222 5 gusting 13 24.9
2019-Dec-14 13:30 229 4 gusting 13 25.0
2019-Dec-14 13:20 226 0 gusting 9 24.7
2019-Dec-14 13:10 213 7 gusting 12 24.4
2019-Dec-14 13:00 254 3 gusting 9 24.3
2019-Dec-14 12:50 275 2 gusting 9 24.2
2019-Dec-14 12:40 209 3 gusting 8 24.1
2019-Dec-14 12:30 220 4 gusting 8 23.8
2019-Dec-14 12:20 222 23.7
2019-Dec-14 12:10 219 3 gusting 7 23.6
2019-Dec-14 12:00 214 4 gusting 7 23.6
2019-Dec-14 11:50 198 6 gusting 9 23.6
2019-Dec-14 11:40 205 5 gusting 8 23.6
2019-Dec-14 11:30 197 3 gusting 9 23.6
2019-Dec-14 11:20 223 5 gusting 12 23.5
2019-Dec-14 10:50 223 2 gusting 8 23.3
2019-Dec-14 10:40 205 6 gusting 8 23.3
2019-Dec-14 10:30 232 5 gusting 12 23.3
2019-Dec-14 10:20 199 5 gusting 7 23.2
2019-Dec-14 10:10 213 6 gusting 9 23.1
2019-Dec-14 10:00 185 3 gusting 6 22.8
2019-Dec-14 09:50 217 4 gusting 6 22.8
2019-Dec-14 09:40 210 3 gusting 6 22.7
2019-Dec-14 09:30 153 4 gusting 6 22.7
2019-Dec-14 09:20 155 2 gusting 6 22.8
2019-Dec-14 09:00 182 6 gusting 6 22.8
2019-Dec-14 08:40 211 3 gusting 6 22.5
2019-Dec-14 08:30 159 5 gusting 6 22.5
2019-Dec-14 08:20 171 4 gusting 6 22.4
2019-Dec-14 08:10 159 4 gusting 6 22.5
2019-Dec-14 08:00 188 3 gusting 6 22.7
2019-Dec-14 07:50 175 5 gusting 6 22.6
2019-Dec-14 07:40 191 3 gusting 6 22.7
2019-Dec-14 07:30 205 4 gusting 6 22.7
2019-Dec-14 07:20 187 4 gusting 6 22.8
2019-Dec-14 07:10 198 4 gusting 5 22.8
2019-Dec-14 07:00 218 1 gusting 4 22.9
2019-Dec-14 06:50 217 0 gusting 6 22.8
2019-Dec-14 06:40 199 1 gusting 4 22.8
2019-Dec-14 06:30 198 2 gusting 7 23.0
2019-Dec-14 06:20 213 3 gusting 6 22.9
2019-Dec-14 06:10 205 4 gusting 7 22.9
2019-Dec-14 06:00 234 2 gusting 7 22.8
2019-Dec-14 05:50 192 4 gusting 7 22.8
2019-Dec-14 05:40 180 5 gusting 8 22.8
2019-Dec-14 05:30 173 6 gusting 8 22.7
2019-Dec-14 05:20 198 5 gusting 8 22.8
2019-Dec-14 05:10 189 4 gusting 8 22.7
2019-Dec-14 05:00 205 4 gusting 7 22.7
2019-Dec-14 04:50 202 4 gusting 7 22.7
2019-Dec-14 04:40 173 4 gusting 7 22.7
2019-Dec-14 04:30 178 3 gusting 8 22.7
2019-Dec-14 04:20 186 2 gusting 7 22.6
2019-Dec-14 04:10 173 2 gusting 6 22.7
2019-Dec-14 04:00 194 5 gusting 6 22.7
2019-Dec-14 03:50 191 3 gusting 5 22.7
2019-Dec-14 03:40 198 4 gusting 6 22.7
2019-Dec-14 03:30 170 3 gusting 5 22.9
2019-Dec-14 03:10 205 3 gusting 6 23.1
2019-Dec-14 03:00 180 2 gusting 6 23.1
2019-Dec-14 02:50 204 3 gusting 8 23.1
2019-Dec-14 02:40 142 3 gusting 5 23.1
2019-Dec-14 02:30 271 2 gusting 6 23.0
2019-Dec-14 02:20 195 1 gusting 5 23.1
2019-Dec-14 02:10 153 4 gusting 7 23.0
2019-Dec-14 02:00 198 3 gusting 7 22.9
2019-Dec-14 01:50 184 4 gusting 13 22.8
2019-Dec-14 01:40 157 7 gusting 9 22.8
2019-Dec-14 01:30 191 1 gusting 9 22.8
2019-Dec-14 01:20 159 6 gusting 12 22.7
2019-Dec-14 01:10 158 7 gusting 13 22.7
2019-Dec-14 01:00 142 3 gusting 12 22.7
2019-Dec-14 00:50 137 4 gusting 12 22.7
2019-Dec-14 00:40 178 4 gusting 9 22.6
2019-Dec-14 00:30 165 3 gusting 7 22.6
2019-Dec-14 00:20 178 2 gusting 5 22.5
2019-Dec-14 00:10 192 5 gusting 6 22.4
2019-Dec-14 00:00 189 3 gusting 7 22.4
2019-Dec-13 23:50 161 0 gusting 7 22.4
2019-Dec-13 23:40 157 4 gusting 6 22.4
2019-Dec-13 23:30 163 1 gusting 6 22.5
2019-Dec-13 23:20 161 3 gusting 6 22.6
2019-Dec-13 23:10 163 3 gusting 5 22.7
2019-Dec-13 23:00 153 2 gusting 6 22.7
2019-Dec-13 22:50 180 2 gusting 5 22.8
2019-Dec-13 22:40 175 1 gusting 4 22.9
2019-Dec-13 22:30 166 0 gusting 4 23.1
2019-Dec-13 22:20 192 1 gusting 4 23.2
2019-Dec-13 22:10 179 1 gusting 4 23.3
2019-Dec-13 22:00 153 0 gusting 3 23.4
2019-Dec-13 21:50 149 1 gusting 5 23.4
2019-Dec-13 21:40 144 2 gusting 5 23.6
2019-Dec-13 21:30 182 1 gusting 6 23.7
2019-Dec-13 21:20 194 5 gusting 6 23.9
2019-Dec-13 21:10 207 5 gusting 6 23.9
2019-Dec-13 21:00 194 2 gusting 6 24.1